N667WA EKBI-ESGG

Flight info

Callsign N667WA
Flight time 1h 2m
Altitude 19000
Route EKBI 27 INTE2A INTET DCT LOBBI LOBI4S ESGG I21
Aircraft C414/L-VGD/C

Departure

Time 2025-10-10 07:36
Airport Billund Airport (EKBI)

Arrival

Time 2025-10-10 08:38
Airport Göteborg Landvetter Airport (ESGG)
Time Latitude Longitude Altitude Speed Heading
2025-10-10 07:20 55.73812 9.13824 221 ft 0 kts 10°
2025-10-10 07:30 55.73817 9.13823 221 ft 4 kts 337°
2025-10-10 07:31 55.73849 9.14133 223 ft 23 kts 73°
2025-10-10 07:31 55.74136 9.14498 226 ft 29 kts 25°
2025-10-10 07:32 55.74204 9.15139 230 ft 25 kts 90°
2025-10-10 07:32 55.74223 9.15827 236 ft 33 kts 88°
2025-10-10 07:33 55.74254 9.16747 240 ft 32 kts 85°
2025-10-10 07:34 55.74091 9.16857 242 ft 5 kts 269°
2025-10-10 07:34 55.74045 9.15424 266 ft 99 kts 267°
2025-10-10 07:34 55.73988 9.14084 488 ft 111 kts 269°
2025-10-10 07:35 55.73909 9.11574 1402 ft 104 kts 271°
2025-10-10 07:35 55.73617 9.09119 2093 ft 113 kts 268°
2025-10-10 07:36 55.73216 9.06257 2578 ft 117 kts 276°
2025-10-10 07:36 55.74377 9.05319 3122 ft 125 kts
2025-10-10 07:37 55.76049 9.05848 3659 ft 124 kts 356°
2025-10-10 07:37 55.76874 9.06548 3914 ft 145 kts 26°
2025-10-10 07:38 55.79158 9.10078 4692 ft 146 kts 25°
2025-10-10 07:38 55.80727 9.12425 5213 ft 148 kts 24°
2025-10-10 07:39 55.82319 9.14794 5719 ft 150 kts 25°
2025-10-10 07:39 55.83919 9.17179 6237 ft 151 kts 25°
2025-10-10 07:40 55.85539 9.19594 6754 ft 152 kts 25°
2025-10-10 07:40 55.87164 9.22021 7233 ft 152 kts 26°
2025-10-10 07:41 55.88788 9.24453 7723 ft 153 kts 26°
2025-10-10 07:42 55.91251 9.28142 8471 ft 154 kts 26°
2025-10-10 07:42 55.92072 9.29372 8724 ft 154 kts 26°
2025-10-10 07:42 55.93701 9.31817 9230 ft 152 kts 26°
2025-10-10 07:43 55.95315 9.34241 9753 ft 151 kts 26°
2025-10-10 07:43 55.96916 9.36647 10258 ft 150 kts 26°
2025-10-10 07:44 55.98506 9.39042 10732 ft 149 kts 26°
2025-10-10 07:44 56.00080 9.41413 11215 ft 147 kts 25°
2025-10-10 07:45 56.01622 9.43766 11667 ft 147 kts 24°
2025-10-10 07:45 56.02419 9.44936 11862 ft 150 kts 24°
2025-10-10 07:46 56.04843 9.48604 12478 ft 155 kts 24°
2025-10-10 07:46 56.06228 9.50702 12821 ft 156 kts 23°
2025-10-10 07:47 56.07891 9.53226 13242 ft 157 kts 23°
2025-10-10 07:47 56.09545 9.55735 13656 ft 157 kts 22°
2025-10-10 07:48 56.10379 9.57001 13868 ft 157 kts 22°
2025-10-10 07:48 56.12880 9.60804 14454 ft 157 kts 22°
2025-10-10 07:49 56.13712 9.62071 14642 ft 157 kts 22°
2025-10-10 07:50 56.17015 9.67109 15400 ft 155 kts 21°
2025-10-10 07:50 56.17839 9.68360 15595 ft 155 kts 22°
2025-10-10 07:50 56.19484 9.70877 15987 ft 155 kts 22°
2025-10-10 07:51 56.21128 9.73390 16377 ft 155 kts 22°
2025-10-10 07:51 56.22775 9.75913 16785 ft 156 kts 22°
2025-10-10 07:52 56.24425 9.78441 17190 ft 156 kts 22°
2025-10-10 07:52 56.25245 9.79703 17398 ft 155 kts 21°
2025-10-10 07:53 56.26873 9.82201 17818 ft 153 kts 22°
2025-10-10 07:53 56.28495 9.84693 18244 ft 154 kts 22°
2025-10-10 07:54 56.30913 9.88424 18826 ft 152 kts 22°
2025-10-10 07:54 56.32555 9.90943 19066 ft 159 kts 22°
2025-10-10 07:55 56.34254 9.93569 19229 ft 165 kts 22°
2025-10-10 07:55 56.36072 9.96358 19242 ft 176 kts 24°
2025-10-10 07:56 56.37958 9.99304 19240 ft 185 kts 25°
2025-10-10 07:56 56.39944 10.02373 19235 ft 191 kts 26°
2025-10-10 07:57 56.40963 10.03961 19233 ft 194 kts 26°
2025-10-10 07:57 56.43028 10.07176 19233 ft 197 kts 26°
2025-10-10 07:58 56.46161 10.12047 19232 ft 199 kts 26°
2025-10-10 07:58 56.48258 10.15344 19235 ft 202 kts 30°
2025-10-10 07:59 56.50367 10.18577 19233 ft 198 kts 25°
2025-10-10 07:59 56.52466 10.21878 19228 ft 200 kts 27°
2025-10-10 08:00 56.53513 10.23541 19232 ft 200 kts 25°
2025-10-10 08:00 56.55633 10.26856 19096 ft 205 kts 27°
2025-10-10 08:01 56.58942 10.32059 18762 ft 214 kts 27°
2025-10-10 08:01 56.60072 10.33838 18658 ft 215 kts 27°
2025-10-10 08:02 56.63471 10.39219 18288 ft 216 kts 28°
2025-10-10 08:02 56.65748 10.42771 18019 ft 216 kts 28°
2025-10-10 08:03 56.68013 10.46380 17763 ft 217 kts 28°
2025-10-10 08:03 56.69150 10.48181 17636 ft 217 kts 28°
2025-10-10 08:04 56.71424 10.51785 17372 ft 217 kts 28°
2025-10-10 08:04 56.73694 10.55391 17115 ft 216 kts 28°
2025-10-10 08:05 56.75961 10.59002 16858 ft 216 kts 28°
2025-10-10 08:05 56.78223 10.62608 16612 ft 216 kts 28°
2025-10-10 08:06 56.81565 10.67925 16392 ft 211 kts 28°
2025-10-10 08:06 56.83764 10.71462 16243 ft 210 kts 28°
2025-10-10 08:07 56.84862 10.73220 16169 ft 210 kts 28°
2025-10-10 08:07 56.87056 10.76739 16021 ft 209 kts 28°
2025-10-10 08:08 56.89244 10.80255 15871 ft 209 kts 28°
2025-10-10 08:08 56.91424 10.83763 15726 ft 209 kts 28°
2025-10-10 08:09 56.93586 10.87248 15581 ft 208 kts 28°
2025-10-10 08:09 56.96845 10.92512 15365 ft 208 kts 27°
2025-10-10 08:10 56.99038 10.96052 15032 ft 215 kts 27°
2025-10-10 08:11 57.02467 11.01640 14332 ft 223 kts 30°
2025-10-10 08:11 57.03633 11.03528 14098 ft 224 kts 29°
2025-10-10 08:11 57.05964 11.07303 13593 ft 224 kts 30°
2025-10-10 08:12 57.08286 11.11096 13067 ft 222 kts 30°
2025-10-10 08:12 57.10502 11.14733 13054 ft 206 kts 29°
2025-10-10 08:13 57.12586 11.18111 13053 ft 197 kts 28°
2025-10-10 08:14 57.15634 11.23097 13049 ft 193 kts 28°
2025-10-10 08:14 57.17633 11.26415 13050 ft 193 kts 28°
2025-10-10 08:14 57.18635 11.28041 13053 ft 192 kts 28°
2025-10-10 08:15 57.20630 11.31315 13054 ft 192 kts 28°
2025-10-10 08:15 57.22616 11.34608 13053 ft 192 kts 28°
2025-10-10 08:16 57.24593 11.37883 13054 ft 190 kts 28°
2025-10-10 08:16 57.26571 11.41162 13051 ft 194 kts 32°
2025-10-10 08:17 57.28542 11.44406 13058 ft 190 kts 28°
2025-10-10 08:18 57.31501 11.49280 13055 ft 191 kts 29°
2025-10-10 08:18 57.33365 11.52898 13051 ft 195 kts 34°
2025-10-10 08:18 57.34274 11.54760 13053 ft 194 kts 33°
2025-10-10 08:19 57.36126 11.58426 13052 ft 196 kts 34°
2025-10-10 08:19 57.37972 11.62156 13047 ft 197 kts 33°
2025-10-10 08:20 57.39826 11.65886 13048 ft 197 kts 33°
2025-10-10 08:20 57.41679 11.69618 13047 ft 197 kts 33°
2025-10-10 08:21 57.43534 11.73361 13041 ft 197 kts 33°
2025-10-10 08:22 57.46304 11.78960 13002 ft 199 kts 33°
2025-10-10 08:22 57.48262 11.82907 12482 ft 215 kts 35°
2025-10-10 08:22 57.49284 11.84989 12194 ft 220 kts 36°
2025-10-10 08:23 57.51367 11.89231 11599 ft 223 kts 36°
2025-10-10 08:23 57.53469 11.93507 11001 ft 224 kts 36°
2025-10-10 08:24 57.55604 11.97671 10406 ft 215 kts 26°
2025-10-10 08:24 57.58148 12.00240 9826 ft 207 kts 18°
2025-10-10 08:25 57.60687 12.02735 9267 ft 206 kts 18°
2025-10-10 08:26 57.64512 12.06477 8448 ft 208 kts 18°
2025-10-10 08:26 57.67077 12.08986 7903 ft 209 kts 19°
2025-10-10 08:26 57.68367 12.10257 7626 ft 210 kts 20°
2025-10-10 08:27 57.70588 12.13901 7079 ft 205 kts 11°
2025-10-10 08:27 57.73309 12.14981 6572 ft 209 kts 15°
2025-10-10 08:28 57.74614 12.16266 6284 ft 214 kts 22°
2025-10-10 08:28 57.78555 12.20286 5433 ft 217 kts 21°
2025-10-10 08:29 57.81233 12.22929 4902 ft 216 kts 22°
2025-10-10 08:30 57.85166 12.26889 4415 ft 213 kts 30°
2025-10-10 08:30 57.86177 12.28853 4252 ft 207 kts 51°
2025-10-10 08:30 57.86906 12.33983 3955 ft 205 kts 85°
2025-10-10 08:31 57.86030 12.38926 3656 ft 203 kts 131°
2025-10-10 08:31 57.84114 12.41263 3392 ft 196 kts 169°
2025-10-10 08:32 57.81479 12.41700 3087 ft 190 kts 181°
2025-10-10 08:32 57.79205 12.40184 2813 ft 172 kts 229°
2025-10-10 08:33 57.77131 12.37919 2516 ft 169 kts 213°
2025-10-10 08:33 57.75113 12.36040 2203 ft 162 kts 213°
2025-10-10 08:34 57.73200 12.34294 1781 ft 136 kts 214°
2025-10-10 08:34 57.71683 12.32911 1440 ft 113 kts 214°
2025-10-10 08:35 57.70348 12.31701 1073 ft 103 kts 209°
2025-10-10 08:35 57.69122 12.30609 774 ft 92 kts 215°
2025-10-10 08:36 57.67973 12.29532 653 ft 97 kts 214°
2025-10-10 08:36 57.66946 12.28551 503 ft 63 kts 206°
2025-10-10 08:37 57.66376 12.28051 493 ft 38 kts 203°
2025-10-10 08:37 57.66150 12.27964 490 ft 21 kts 138°
2025-10-10 08:38 57.66113 12.28079 494 ft 0 kts 110°
2025-10-10 08:38 57.66177 12.28227 495 ft 21 kts 25°
2025-10-10 08:39 57.66454 12.28483 498 ft 27 kts 27°
2025-10-10 08:39 57.66831 12.28811 502 ft 33 kts 17°
2025-10-10 08:40 57.67003 12.28985 504 ft 17 kts 35°
2025-10-10 08:40 57.67046 12.29432 506 ft 8 kts 355°
2025-10-10 08:41 57.67042 12.29348 505 ft 8 kts 248°